Year,Month,Day,Hour,Minute,Value (Times are PST for temperature in C)
2014,07,28,00,00,21.80
2014,07,28,00,01,21.80
2014,07,28,00,02,21.80
2014,07,28,00,03,21.80
2014,07,28,00,04,21.80
2014,07,28,00,05,21.70
2014,07,28,00,06,21.70
2014,07,28,00,07,21.60
2014,07,28,00,08,21.50
2014,07,28,00,09,21.40
2014,07,28,00,10,21.30
2014,07,28,00,11,21.20
2014,07,28,00,12,21.20
2014,07,28,00,13,21.10
2014,07,28,00,14,21.00
2014,07,28,00,15,20.90
2014,07,28,00,16,20.80
2014,07,28,00,17,20.70
2014,07,28,00,18,20.60
2014,07,28,00,19,20.60
2014,07,28,00,20,20.50
2014,07,28,00,21,20.40
2014,07,28,00,22,20.40
2014,07,28,00,23,20.30
2014,07,28,00,24,20.30
2014,07,28,00,25,20.20
2014,07,28,00,26,20.10
2014,07,28,00,27,20.10
2014,07,28,00,28,20.00
2014,07,28,00,29,20.00
2014,07,28,00,30,19.90
2014,07,28,00,31,19.90
2014,07,28,00,32,19.80
2014,07,28,00,33,19.80
2014,07,28,00,34,19.70
2014,07,28,00,35,19.70
2014,07,28,00,36,19.60
2014,07,28,00,37,19.60
2014,07,28,00,38,19.50
2014,07,28,00,39,19.50
2014,07,28,00,40,19.50
2014,07,28,00,41,19.40
2014,07,28,00,42,19.40
2014,07,28,00,43,19.40
2014,07,28,00,44,19.30
2014,07,28,00,45,19.30
2014,07,28,00,46,19.30
2014,07,28,00,47,19.30
2014,07,28,00,48,19.30
2014,07,28,00,49,19.20
2014,07,28,00,50,19.20
2014,07,28,00,51,19.20
2014,07,28,00,52,19.20
2014,07,28,00,53,19.10
2014,07,28,00,54,19.10
2014,07,28,00,55,19.10
2014,07,28,00,56,19.10
2014,07,28,00,57,19.10
2014,07,28,00,58,19.00
2014,07,28,00,59,19.00
2014,07,28,01,00,19.00
2014,07,28,01,01,18.90
2014,07,28,01,02,18.90
2014,07,28,01,03,18.90
2014,07,28,01,04,18.90
2014,07,28,01,05,18.90
2014,07,28,01,06,18.90
2014,07,28,01,07,18.90
2014,07,28,01,08,18.80
2014,07,28,01,09,18.80
2014,07,28,01,10,18.80
2014,07,28,01,11,18.80
2014,07,28,01,12,18.80
2014,07,28,01,13,18.80
2014,07,28,01,14,18.80
2014,07,28,01,15,18.70
2014,07,28,01,16,18.70
2014,07,28,01,17,18.70
2014,07,28,01,18,18.70
2014,07,28,01,19,18.70
2014,07,28,01,20,18.70
2014,07,28,01,21,18.60
2014,07,28,01,22,18.60
2014,07,28,01,23,18.60
2014,07,28,01,24,18.60
2014,07,28,01,25,18.60
2014,07,28,01,26,18.50
2014,07,28,01,27,18.50
2014,07,28,01,28,18.40
2014,07,28,01,29,18.40
2014,07,28,01,30,18.40
2014,07,28,01,31,18.40
2014,07,28,01,32,18.30
2014,07,28,01,33,18.30
2014,07,28,01,34,18.30
2014,07,28,01,35,18.30
2014,07,28,01,36,18.30
2014,07,28,01,37,18.20
2014,07,28,01,38,18.20
2014,07,28,01,39,18.20
2014,07,28,01,40,18.20
2014,07,28,01,41,18.20
2014,07,28,01,42,18.20
2014,07,28,01,43,18.20
2014,07,28,01,44,18.10
2014,07,28,01,45,18.10
2014,07,28,01,46,18.10
2014,07,28,01,47,18.10
2014,07,28,01,48,18.10
2014,07,28,01,49,18.00
2014,07,28,01,50,18.00
2014,07,28,01,51,18.00
2014,07,28,01,52,17.90
2014,07,28,01,53,17.90
2014,07,28,01,54,17.90
2014,07,28,01,55,17.80
2014,07,28,01,56,17.80
2014,07,28,01,57,17.80
2014,07,28,01,58,17.80
2014,07,28,01,59,17.80
2014,07,28,02,00,17.80
2014,07,28,02,01,17.70
2014,07,28,02,02,17.70
2014,07,28,02,03,17.70
2014,07,28,02,04,17.70
2014,07,28,02,05,17.70
2014,07,28,02,06,17.70
2014,07,28,02,07,17.70
2014,07,28,02,08,17.60
2014,07,28,02,09,17.60
2014,07,28,02,10,17.60
2014,07,28,02,11,17.60
2014,07,28,02,12,17.60
2014,07,28,02,13,17.50
2014,07,28,02,14,17.50
2014,07,28,02,15,17.50
2014,07,28,02,16,17.50
2014,07,28,02,17,17.50
2014,07,28,02,18,17.40
2014,07,28,02,19,17.40
2014,07,28,02,20,17.40
2014,07,28,02,21,17.40
2014,07,28,02,22,17.40
2014,07,28,02,23,17.40
2014,07,28,02,24,17.40
2014,07,28,02,25,17.30
2014,07,28,02,26,17.30
2014,07,28,02,27,17.30
2014,07,28,02,28,17.30
2014,07,28,02,29,17.30
2014,07,28,02,30,17.30
2014,07,28,02,31,17.30
2014,07,28,02,32,17.30
2014,07,28,02,33,17.30
2014,07,28,02,34,17.30
2014,07,28,02,35,17.30
2014,07,28,02,36,17.30
2014,07,28,02,37,17.30
2014,07,28,02,38,17.30
2014,07,28,02,39,17.30
2014,07,28,02,40,17.20
2014,07,28,02,41,17.20
2014,07,28,02,42,17.20
2014,07,28,02,43,17.20
2014,07,28,02,44,17.20
2014,07,28,02,45,17.20
2014,07,28,02,46,17.20
2014,07,28,02,47,17.20
2014,07,28,02,48,17.20
2014,07,28,02,49,17.20
2014,07,28,02,50,17.20
2014,07,28,02,51,17.20
2014,07,28,02,52,17.20
2014,07,28,02,53,17.10
2014,07,28,02,54,17.10
2014,07,28,02,55,17.10
2014,07,28,02,56,17.10
2014,07,28,02,57,17.10
2014,07,28,02,58,17.10
2014,07,28,02,59,17.10
2014,07,28,03,00,17.10
2014,07,28,03,01,17.00
2014,07,28,03,02,17.00
2014,07,28,03,03,17.00
2014,07,28,03,04,16.90
2014,07,28,03,05,16.90
2014,07,28,03,06,16.90
2014,07,28,03,07,16.90
2014,07,28,03,08,16.90
2014,07,28,03,09,16.80
2014,07,28,03,10,16.80
2014,07,28,03,11,16.80
2014,07,28,03,12,16.80
2014,07,28,03,13,16.80
2014,07,28,03,14,16.80
2014,07,28,03,15,16.80
2014,07,28,03,16,16.80
2014,07,28,03,17,16.80
2014,07,28,03,18,16.80
2014,07,28,03,19,16.70
2014,07,28,03,20,16.70
2014,07,28,03,21,16.70
2014,07,28,03,22,16.70
2014,07,28,03,23,16.70
2014,07,28,03,24,16.70
2014,07,28,03,25,16.70
2014,07,28,03,26,16.70
2014,07,28,03,27,16.70
2014,07,28,03,28,16.70
2014,07,28,03,29,16.70
2014,07,28,03,30,16.60
2014,07,28,03,31,16.60
2014,07,28,03,32,16.60
2014,07,28,03,33,16.60
2014,07,28,03,34,16.60
2014,07,28,03,35,16.60
2014,07,28,03,36,16.60
2014,07,28,03,37,16.60
2014,07,28,03,38,16.60
2014,07,28,03,39,16.60
2014,07,28,03,40,16.60
2014,07,28,03,41,16.60
2014,07,28,03,42,16.60
2014,07,28,03,43,16.60
2014,07,28,03,44,16.50
2014,07,28,03,45,16.50
2014,07,28,03,46,16.50
2014,07,28,03,47,16.50
2014,07,28,03,48,16.50
2014,07,28,03,49,16.50
2014,07,28,03,50,16.40
2014,07,28,03,51,16.40
2014,07,28,03,52,16.40
2014,07,28,03,53,16.40
2014,07,28,03,54,16.40
2014,07,28,03,55,16.40
2014,07,28,03,56,16.40
2014,07,28,03,57,16.40
2014,07,28,03,58,16.40
2014,07,28,03,59,16.30
2014,07,28,04,00,16.30
2014,07,28,04,01,16.30
2014,07,28,04,02,16.30
2014,07,28,04,03,16.30
2014,07,28,04,04,16.30
2014,07,28,04,05,16.30
2014,07,28,04,06,16.30
2014,07,28,04,07,16.30
2014,07,28,04,08,16.30
2014,07,28,04,09,16.30
2014,07,28,04,10,16.30
2014,07,28,04,11,16.30
2014,07,28,04,12,16.30
2014,07,28,04,13,16.30
2014,07,28,04,14,16.20
2014,07,28,04,15,16.20
2014,07,28,04,16,16.20
2014,07,28,04,17,16.20
2014,07,28,04,18,16.20
2014,07,28,04,19,16.20
2014,07,28,04,20,16.20
2014,07,28,04,21,16.20
2014,07,28,04,22,16.20
2014,07,28,04,23,16.20
2014,07,28,04,24,16.20
2014,07,28,04,25,16.20
2014,07,28,04,26,16.20
2014,07,28,04,27,16.20
2014,07,28,04,28,16.20
2014,07,28,04,29,16.20
2014,07,28,04,30,16.20
2014,07,28,04,31,16.10
2014,07,28,04,32,16.10
2014,07,28,04,33,16.10
2014,07,28,04,34,16.10
2014,07,28,04,35,16.10
2014,07,28,04,36,16.10
2014,07,28,04,37,16.10
2014,07,28,04,38,16.10
2014,07,28,04,39,16.10
2014,07,28,04,40,16.10
2014,07,28,04,41,16.00
2014,07,28,04,42,16.00
2014,07,28,04,43,16.00
2014,07,28,04,44,16.00
2014,07,28,04,45,16.00
2014,07,28,04,46,16.00
2014,07,28,04,47,16.00
2014,07,28,04,48,15.90
2014,07,28,04,49,15.90
2014,07,28,04,50,15.90
2014,07,28,04,51,15.90
2014,07,28,04,52,15.90
2014,07,28,04,53,15.90
2014,07,28,04,54,15.90
2014,07,28,04,55,15.80
2014,07,28,04,56,15.80
2014,07,28,04,57,15.80
2014,07,28,04,58,15.80
2014,07,28,04,59,15.80
2014,07,28,05,00,15.80
2014,07,28,05,01,15.80
2014,07,28,05,02,15.80
2014,07,28,05,03,15.80
2014,07,28,05,04,15.80
2014,07,28,05,05,15.80
2014,07,28,05,06,15.70
2014,07,28,05,07,15.70
2014,07,28,05,08,15.70
2014,07,28,05,09,15.70
2014,07,28,05,10,15.70
2014,07,28,05,11,15.70
2014,07,28,05,12,15.70
2014,07,28,05,13,15.70
2014,07,28,05,14,15.70
2014,07,28,05,15,15.60
2014,07,28,05,16,15.60
2014,07,28,05,17,15.60
2014,07,28,05,18,15.60
2014,07,28,05,19,15.60
2014,07,28,05,20,15.60
2014,07,28,05,21,15.60
2014,07,28,05,22,15.60
2014,07,28,05,23,15.50
2014,07,28,05,24,15.50
2014,07,28,05,25,15.50
2014,07,28,05,26,15.50
2014,07,28,05,27,15.40
2014,07,28,05,28,15.40
2014,07,28,05,29,15.40
2014,07,28,05,30,15.40
2014,07,28,05,31,15.40
2014,07,28,05,32,15.40
2014,07,28,05,33,15.40
2014,07,28,05,34,15.40
2014,07,28,05,35,15.40
2014,07,28,05,36,15.40
2014,07,28,05,37,15.40
2014,07,28,05,38,15.40
2014,07,28,05,39,15.40
2014,07,28,05,40,15.40
2014,07,28,05,41,15.40
2014,07,28,05,42,15.40
2014,07,28,05,43,15.40
2014,07,28,05,44,15.40
2014,07,28,05,45,15.40
2014,07,28,05,46,15.40
2014,07,28,05,47,15.40
2014,07,28,05,48,15.40
2014,07,28,05,49,15.40
2014,07,28,05,50,15.40
2014,07,28,05,51,15.40
2014,07,28,05,52,15.40
2014,07,28,05,53,15.50
2014,07,28,05,54,15.50
2014,07,28,05,55,15.50
2014,07,28,05,56,15.40
2014,07,28,05,57,15.40
2014,07,28,05,58,15.40
2014,07,28,05,59,15.40
2014,07,28,06,00,15.40
2014,07,28,06,01,15.40
2014,07,28,06,02,15.40
2014,07,28,06,03,15.40
2014,07,28,06,04,15.40
2014,07,28,06,05,15.40
2014,07,28,06,06,15.40
2014,07,28,06,07,15.40
2014,07,28,06,08,15.40
2014,07,28,06,09,15.40
2014,07,28,06,10,15.40
2014,07,28,06,11,15.40
2014,07,28,06,12,15.40
2014,07,28,06,13,15.30
2014,07,28,06,14,15.30
2014,07,28,06,15,15.30
2014,07,28,06,16,15.30
2014,07,28,06,17,15.40
2014,07,28,06,18,15.40
2014,07,28,06,19,15.30
2014,07,28,06,20,15.40
2014,07,28,06,21,15.40
2014,07,28,06,22,15.40
2014,07,28,06,23,15.40
2014,07,28,06,24,15.40
2014,07,28,06,25,15.40
2014,07,28,06,26,15.40
2014,07,28,06,27,15.40
2014,07,28,06,28,15.40
2014,07,28,06,29,15.40
2014,07,28,06,30,15.50
2014,07,28,06,31,15.50
2014,07,28,06,32,15.50
2014,07,28,06,33,15.50
2014,07,28,06,34,15.60
2014,07,28,06,35,15.60
2014,07,28,06,36,15.60
2014,07,28,06,37,15.60
2014,07,28,06,38,15.60
2014,07,28,06,39,15.60
2014,07,28,06,40,15.60
2014,07,28,06,41,15.60
2014,07,28,06,42,15.70
2014,07,28,06,43,15.70
2014,07,28,06,44,15.70
2014,07,28,06,45,15.70
2014,07,28,06,46,15.70
2014,07,28,06,47,15.80
2014,07,28,06,48,15.80
2014,07,28,06,49,15.80
2014,07,28,06,50,15.80
2014,07,28,06,51,15.80
2014,07,28,06,52,15.90
2014,07,28,06,53,15.90
2014,07,28,06,54,15.90
2014,07,28,06,55,15.90
2014,07,28,06,56,15.90
2014,07,28,06,57,16.00
2014,07,28,06,58,16.00
2014,07,28,06,59,16.00
2014,07,28,07,00,16.10
2014,07,28,07,01,16.10
2014,07,28,07,02,16.10
2014,07,28,07,03,16.10
2014,07,28,07,04,16.20
2014,07,28,07,05,16.20
2014,07,28,07,06,16.20
2014,07,28,07,07,16.30
2014,07,28,07,08,16.30
2014,07,28,07,09,16.40
2014,07,28,07,10,16.40
2014,07,28,07,11,16.50
2014,07,28,07,12,16.50
2014,07,28,07,13,16.60
2014,07,28,07,14,16.60
2014,07,28,07,15,16.70
2014,07,28,07,16,16.70
2014,07,28,07,17,16.70
2014,07,28,07,18,16.80
2014,07,28,07,19,16.80
2014,07,28,07,20,16.80
2014,07,28,07,21,16.90
2014,07,28,07,22,16.90
2014,07,28,07,23,16.90
2014,07,28,07,24,16.90
2014,07,28,07,25,16.90
2014,07,28,07,26,17.00
2014,07,28,07,27,17.00
2014,07,28,07,28,17.00
2014,07,28,07,29,17.00
2014,07,28,07,30,17.10
2014,07,28,07,31,17.10
2014,07,28,07,32,17.10
2014,07,28,07,33,17.20
2014,07,28,07,34,17.20
2014,07,28,07,35,17.20
2014,07,28,07,36,17.30
2014,07,28,07,37,17.30
2014,07,28,07,38,17.30
2014,07,28,07,39,17.40
2014,07,28,07,40,17.40
2014,07,28,07,41,17.50
2014,07,28,07,42,17.50
2014,07,28,07,43,17.60
2014,07,28,07,44,17.70
2014,07,28,07,45,17.70
2014,07,28,07,46,17.80
2014,07,28,07,47,17.90
2014,07,28,07,48,17.90
2014,07,28,07,49,18.00
2014,07,28,07,50,18.00
2014,07,28,07,51,18.10
2014,07,28,07,52,18.10
2014,07,28,07,53,18.20
2014,07,28,07,54,18.20
2014,07,28,07,55,18.30
2014,07,28,07,56,18.30
2014,07,28,07,57,18.30
2014,07,28,07,58,18.40
2014,07,28,07,59,18.50
2014,07,28,08,00,18.60
2014,07,28,08,01,18.70
2014,07,28,08,02,18.80
2014,07,28,08,03,19.00
2014,07,28,08,04,19.10
2014,07,28,08,05,19.30
2014,07,28,08,06,19.40
2014,07,28,08,07,19.60
2014,07,28,08,08,19.70
2014,07,28,08,09,19.90
2014,07,28,08,10,20.00
2014,07,28,08,11,20.20
2014,07,28,08,12,20.30
2014,07,28,08,13,20.40
2014,07,28,08,14,20.50
2014,07,28,08,15,20.60
2014,07,28,08,16,20.60
2014,07,28,08,17,20.70
2014,07,28,08,18,20.80
2014,07,28,08,19,20.80
2014,07,28,08,20,20.90
2014,07,28,08,21,20.90
2014,07,28,08,22,20.90
2014,07,28,08,23,20.90
2014,07,28,08,24,20.90
2014,07,28,08,25,20.90
2014,07,28,08,26,20.90
2014,07,28,08,27,20.80
2014,07,28,08,28,20.80
2014,07,28,08,29,20.80
2014,07,28,08,30,20.80
2014,07,28,08,31,20.70
2014,07,28,08,32,20.70
2014,07,28,08,33,20.70
2014,07,28,08,34,20.70
2014,07,28,08,35,20.70
2014,07,28,08,36,20.70
2014,07,28,08,37,20.70
2014,07,28,08,38,20.70
2014,07,28,08,39,20.70
2014,07,28,08,40,20.60
2014,07,28,08,41,20.60
2014,07,28,08,42,20.60
2014,07,28,08,43,20.60
2014,07,28,08,44,20.60
2014,07,28,08,45,20.50
2014,07,28,08,46,20.50
2014,07,28,08,47,20.50
2014,07,28,08,48,20.60
2014,07,28,08,49,20.60
2014,07,28,08,50,20.60
2014,07,28,08,51,20.70
2014,07,28,08,52,20.80
2014,07,28,08,53,20.80
2014,07,28,08,54,21.00
2014,07,28,08,55,21.10
2014,07,28,08,56,21.20
2014,07,28,08,57,21.20
2014,07,28,08,58,21.30
2014,07,28,08,59,21.40
2014,07,28,09,00,21.40
2014,07,28,09,01,21.40
2014,07,28,09,02,21.40
2014,07,28,09,03,21.40
2014,07,28,09,04,21.40
2014,07,28,09,05,21.40
2014,07,28,09,06,21.40
2014,07,28,09,07,21.40
2014,07,28,09,08,21.40
2014,07,28,09,09,21.40
2014,07,28,09,10,21.40
2014,07,28,09,11,21.40
2014,07,28,09,12,21.40
2014,07,28,09,13,21.40
2014,07,28,09,14,21.50
2014,07,28,09,15,21.50
2014,07,28,09,16,21.60
2014,07,28,09,17,21.70
2014,07,28,09,18,21.70
2014,07,28,09,19,21.80
2014,07,28,09,20,21.80
2014,07,28,09,21,21.90
2014,07,28,09,22,21.90
2014,07,28,09,23,22.00
2014,07,28,09,24,22.00
2014,07,28,09,25,22.10
2014,07,28,09,26,22.10
2014,07,28,09,27,22.20
2014,07,28,09,28,22.20
2014,07,28,09,29,22.20
2014,07,28,09,30,22.20
2014,07,28,09,31,22.20
2014,07,28,09,32,22.30
2014,07,28,09,33,22.30
2014,07,28,09,34,22.30
2014,07,28,09,35,22.40
2014,07,28,09,36,22.40
2014,07,28,09,37,22.50
2014,07,28,09,38,22.60
2014,07,28,09,39,22.70
2014,07,28,09,40,22.70
2014,07,28,09,41,22.70
2014,07,28,09,42,22.80
2014,07,28,09,43,22.80
2014,07,28,09,44,22.80
2014,07,28,09,45,22.80
2014,07,28,09,46,22.80
2014,07,28,09,47,22.80
2014,07,28,09,48,22.80
2014,07,28,09,49,22.80
2014,07,28,09,50,22.70
2014,07,28,09,51,22.70
2014,07,28,09,52,22.60
2014,07,28,09,53,22.60
2014,07,28,09,54,22.60
2014,07,28,09,55,22.60
2014,07,28,09,56,22.50
2014,07,28,09,57,22.50
2014,07,28,09,58,22.40
2014,07,28,09,59,22.40
2014,07,28,10,00,22.40
2014,07,28,10,01,22.40
2014,07,28,10,02,22.50
2014,07,28,10,03,22.50
2014,07,28,10,04,22.60
2014,07,28,10,05,22.70
2014,07,28,10,06,22.70
2014,07,28,10,07,22.80
2014,07,28,10,08,22.90
2014,07,28,10,09,22.90
2014,07,28,10,10,22.90
2014,07,28,10,11,23.00
2014,07,28,10,12,23.10
2014,07,28,10,13,23.10
2014,07,28,10,14,23.10
2014,07,28,10,15,23.20
2014,07,28,10,16,23.30
2014,07,28,10,17,23.30
2014,07,28,10,18,23.40
2014,07,28,10,19,23.40
2014,07,28,10,20,23.50
2014,07,28,10,21,23.60
2014,07,28,10,22,23.60
2014,07,28,10,23,23.70
2014,07,28,10,24,23.60
2014,07,28,10,25,23.60
2014,07,28,10,26,23.60
2014,07,28,10,27,23.70
2014,07,28,10,28,23.70
2014,07,28,10,29,23.70
2014,07,28,10,30,23.70
2014,07,28,10,31,23.70
2014,07,28,10,32,23.70
2014,07,28,10,33,23.70
2014,07,28,10,34,23.60
2014,07,28,10,35,23.60
2014,07,28,10,36,23.60
2014,07,28,10,37,23.60
2014,07,28,10,38,23.70
2014,07,28,10,39,23.70
2014,07,28,10,40,23.70
2014,07,28,10,41,23.80
2014,07,28,10,42,23.80
2014,07,28,10,43,23.80
2014,07,28,10,44,23.80
2014,07,28,10,45,23.70
2014,07,28,10,46,23.60
2014,07,28,10,47,23.60
2014,07,28,10,48,23.50
2014,07,28,10,49,23.40
2014,07,28,10,50,23.30
2014,07,28,10,51,23.30
2014,07,28,10,52,23.30
2014,07,28,10,53,23.30
2014,07,28,10,54,23.30
2014,07,28,10,55,23.30
2014,07,28,10,56,23.40
2014,07,28,10,57,23.50
2014,07,28,10,58,23.50
2014,07,28,10,59,23.60
2014,07,28,11,00,23.60
2014,07,28,11,01,23.70
2014,07,28,11,02,23.80
2014,07,28,11,03,23.90
2014,07,28,11,04,24.00
2014,07,28,11,05,24.10
2014,07,28,11,06,24.10
2014,07,28,11,07,24.10
2014,07,28,11,08,24.10
2014,07,28,11,09,24.10
2014,07,28,11,10,24.10
2014,07,28,11,11,24.10
2014,07,28,11,12,24.00
2014,07,28,11,13,24.00
2014,07,28,11,14,24.00
2014,07,28,11,15,24.00
2014,07,28,11,16,24.10
2014,07,28,11,17,24.10
2014,07,28,11,18,24.20
2014,07,28,11,19,24.20
2014,07,28,11,20,24.20
2014,07,28,11,21,24.10
2014,07,28,11,22,24.10
2014,07,28,11,23,24.00
2014,07,28,11,24,23.90
2014,07,28,11,25,23.90
2014,07,28,11,26,24.00
2014,07,28,11,27,24.00
2014,07,28,11,28,24.10
2014,07,28,11,29,24.10
2014,07,28,11,30,24.10
2014,07,28,11,31,24.10
2014,07,28,11,32,24.10
2014,07,28,11,33,24.10
2014,07,28,11,34,24.10
2014,07,28,11,35,24.10
2014,07,28,11,36,24.10
2014,07,28,11,37,24.20
2014,07,28,11,38,24.20
2014,07,28,11,39,24.30
2014,07,28,11,40,24.30
2014,07,28,11,41,24.40
2014,07,28,11,42,24.50
2014,07,28,11,43,24.50
2014,07,28,11,44,24.60
2014,07,28,11,45,24.60
2014,07,28,11,46,24.60
2014,07,28,11,47,24.60
2014,07,28,11,48,24.60
2014,07,28,11,49,24.50
2014,07,28,11,50,24.50
2014,07,28,11,51,24.40
2014,07,28,11,52,24.30
2014,07,28,11,53,24.30
2014,07,28,11,54,24.20
2014,07,28,11,55,24.30
2014,07,28,11,56,24.20
2014,07,28,11,57,24.10
2014,07,28,11,58,24.10
2014,07,28,11,59,24.00
2014,07,28,12,00,24.10
2014,07,28,12,01,24.10
2014,07,28,12,02,24.20
2014,07,28,12,03,24.20
2014,07,28,12,04,24.20
2014,07,28,12,05,24.20
2014,07,28,12,06,24.20
2014,07,28,12,07,24.20
2014,07,28,12,08,24.20
2014,07,28,12,09,24.30
2014,07,28,12,10,24.40
2014,07,28,12,11,24.50
2014,07,28,12,12,24.60
2014,07,28,12,13,24.70
2014,07,28,12,14,24.70
2014,07,28,12,15,24.70
2014,07,28,12,16,24.80
2014,07,28,12,17,24.70
2014,07,28,12,18,24.70
2014,07,28,12,19,24.70
2014,07,28,12,20,24.80
2014,07,28,12,21,24.80
2014,07,28,12,22,24.90
2014,07,28,12,23,24.90
2014,07,28,12,24,24.90
2014,07,28,12,25,24.90
2014,07,28,12,26,25.00
2014,07,28,12,27,25.10
2014,07,28,12,28,25.10
2014,07,28,12,29,25.10
2014,07,28,12,30,25.10
2014,07,28,12,31,25.20
2014,07,28,12,32,25.20
2014,07,28,12,33,25.10
2014,07,28,12,34,25.10
2014,07,28,12,35,25.10
2014,07,28,12,36,25.10
2014,07,28,12,37,25.10
2014,07,28,12,38,25.10
2014,07,28,12,39,25.00
2014,07,28,12,40,25.00
2014,07,28,12,41,25.00
2014,07,28,12,42,25.00
2014,07,28,12,43,25.00
2014,07,28,12,44,25.10
2014,07,28,12,45,25.10
2014,07,28,12,46,25.10
2014,07,28,12,47,25.10
2014,07,28,12,48,25.20
2014,07,28,12,49,25.30
2014,07,28,12,50,25.30
2014,07,28,12,51,25.30
2014,07,28,12,52,25.40
2014,07,28,12,53,25.40
2014,07,28,12,54,25.50
2014,07,28,12,55,25.50
2014,07,28,12,56,25.50
2014,07,28,12,57,25.50
2014,07,28,12,58,25.50
2014,07,28,12,59,25.50
2014,07,28,13,00,25.50
2014,07,28,13,01,25.50
2014,07,28,13,02,25.50
2014,07,28,13,03,25.40
2014,07,28,13,04,25.40
2014,07,28,13,05,25.40
2014,07,28,13,06,25.40
2014,07,28,13,07,25.30
2014,07,28,13,08,25.30
2014,07,28,13,09,25.30
2014,07,28,13,10,25.30
2014,07,28,13,11,25.40
2014,07,28,13,12,25.40
2014,07,28,13,13,25.40
2014,07,28,13,14,25.30
2014,07,28,13,15,25.30
2014,07,28,13,16,25.30
2014,07,28,13,17,25.30
2014,07,28,13,18,25.40
2014,07,28,13,19,25.40
2014,07,28,13,20,25.40
2014,07,28,13,21,25.40
2014,07,28,13,22,25.50
2014,07,28,13,23,25.60
2014,07,28,13,24,25.80
2014,07,28,13,25,25.90
2014,07,28,13,26,25.90
2014,07,28,13,27,25.90
2014,07,28,13,28,25.90
2014,07,28,13,29,25.90
2014,07,28,13,30,26.00
2014,07,28,13,31,26.10
2014,07,28,13,32,26.10
2014,07,28,13,33,26.10
2014,07,28,13,34,26.10
2014,07,28,13,35,26.10
2014,07,28,13,36,26.20
2014,07,28,13,37,26.20
2014,07,28,13,38,26.20
2014,07,28,13,39,26.20
2014,07,28,13,40,26.20
2014,07,28,13,41,26.20
2014,07,28,13,42,26.20
2014,07,28,13,43,26.20
2014,07,28,13,44,26.30
2014,07,28,13,45,26.30
2014,07,28,13,46,26.30
2014,07,28,13,47,26.30
2014,07,28,13,48,26.20
2014,07,28,13,49,26.20
2014,07,28,13,50,26.20
2014,07,28,13,51,26.20
2014,07,28,13,52,26.20
2014,07,28,13,53,26.20
2014,07,28,13,54,26.20
2014,07,28,13,55,26.20
2014,07,28,13,56,26.10
2014,07,28,13,57,26.00
2014,07,28,13,58,25.90
2014,07,28,13,59,25.90
2014,07,28,14,00,25.90
2014,07,28,14,01,25.90
2014,07,28,14,02,25.80
2014,07,28,14,03,25.70
2014,07,28,14,04,25.70
2014,07,28,14,05,25.60
2014,07,28,14,06,25.50
2014,07,28,14,07,25.50
2014,07,28,14,08,25.50
2014,07,28,14,09,25.60
2014,07,28,14,10,25.60
2014,07,28,14,11,25.70
2014,07,28,14,12,25.80
2014,07,28,14,13,25.80
2014,07,28,14,14,25.80
2014,07,28,14,15,25.80
2014,07,28,14,16,25.80
2014,07,28,14,17,25.90
2014,07,28,14,18,25.90
2014,07,28,14,19,25.80
2014,07,28,14,20,25.80
2014,07,28,14,21,25.70
2014,07,28,14,22,25.60
2014,07,28,14,23,25.60
2014,07,28,14,24,25.60
2014,07,28,14,25,25.60
2014,07,28,14,26,25.70
2014,07,28,14,27,25.70
2014,07,28,14,28,25.70
2014,07,28,14,29,25.60
2014,07,28,14,30,25.60
2014,07,28,14,31,25.60
2014,07,28,14,32,25.60
2014,07,28,14,33,25.60
2014,07,28,14,34,25.80
2014,07,28,14,35,25.90
2014,07,28,14,36,26.00
2014,07,28,14,37,26.00
2014,07,28,14,38,25.90
2014,07,28,14,39,25.80
2014,07,28,14,40,25.70
2014,07,28,14,41,25.60
2014,07,28,14,42,25.50
2014,07,28,14,43,25.50
2014,07,28,14,44,25.50
2014,07,28,14,45,25.60
2014,07,28,14,46,25.60
2014,07,28,14,47,25.60
2014,07,28,14,48,25.60
2014,07,28,14,49,25.60
2014,07,28,14,50,25.70
2014,07,28,14,51,25.80
2014,07,28,14,52,25.80
2014,07,28,14,53,25.90
2014,07,28,14,54,25.90
2014,07,28,14,55,25.90
2014,07,28,14,56,26.00
2014,07,28,14,57,26.20
2014,07,28,14,58,26.40
2014,07,28,14,59,26.50
2014,07,28,15,00,26.60
2014,07,28,15,01,26.70
2014,07,28,15,02,26.80
2014,07,28,15,03,26.80
2014,07,28,15,04,26.80
2014,07,28,15,05,26.90
2014,07,28,15,06,27.00
2014,07,28,15,07,27.10
2014,07,28,15,08,27.10
2014,07,28,15,09,27.10
2014,07,28,15,10,27.10
2014,07,28,15,11,27.10
2014,07,28,15,12,27.10
2014,07,28,15,13,27.10
2014,07,28,15,14,27.10
2014,07,28,15,15,27.10
2014,07,28,15,16,27.10
2014,07,28,15,17,27.20
2014,07,28,15,18,27.20
2014,07,28,15,19,27.20
2014,07,28,15,20,27.30
2014,07,28,15,21,27.30
2014,07,28,15,22,27.30
2014,07,28,15,23,27.30
2014,07,28,15,24,27.30
2014,07,28,15,25,27.20
2014,07,28,15,26,27.10
2014,07,28,15,27,27.00
2014,07,28,15,28,26.90
2014,07,28,15,29,26.80
2014,07,28,15,30,26.80
2014,07,28,15,31,26.80
2014,07,28,15,32,26.80
2014,07,28,15,33,26.80
2014,07,28,15,34,26.80
2014,07,28,15,35,26.90
2014,07,28,15,36,26.90
2014,07,28,15,37,26.80
2014,07,28,15,38,26.80
2014,07,28,15,39,26.80
2014,07,28,15,40,26.80
2014,07,28,15,41,26.80
2014,07,28,15,42,26.80
2014,07,28,15,43,26.80
2014,07,28,15,44,26.90
2014,07,28,15,45,26.90
2014,07,28,15,46,27.00
2014,07,28,15,47,27.10
2014,07,28,15,48,27.30
2014,07,28,15,49,27.50
2014,07,28,15,50,27.70
2014,07,28,15,51,27.90
2014,07,28,15,52,28.10
2014,07,28,15,53,28.40
2014,07,28,15,54,28.60
2014,07,28,15,55,28.70
2014,07,28,15,56,28.80
2014,07,28,15,57,28.90
2014,07,28,15,58,29.00
2014,07,28,15,59,29.10
2014,07,28,16,00,29.20
2014,07,28,16,01,29.30
2014,07,28,16,02,29.30
2014,07,28,16,03,29.30
2014,07,28,16,04,29.40
2014,07,28,16,05,29.40
2014,07,28,16,06,29.40
2014,07,28,16,07,29.30
2014,07,28,16,08,29.30
2014,07,28,16,09,29.20
2014,07,28,16,10,29.10
2014,07,28,16,11,29.10
2014,07,28,16,12,29.10
2014,07,28,16,13,29.10
2014,07,28,16,14,29.20
2014,07,28,16,15,29.20
2014,07,28,16,16,29.30
2014,07,28,16,17,29.30
2014,07,28,16,18,29.40
2014,07,28,16,19,29.50
2014,07,28,16,20,29.50
2014,07,28,16,21,29.50
2014,07,28,16,22,29.40
2014,07,28,16,23,29.40
2014,07,28,16,24,29.30
2014,07,28,16,25,29.30
2014,07,28,16,26,29.40
2014,07,28,16,27,29.40
2014,07,28,16,28,29.40
2014,07,28,16,29,29.50
2014,07,28,16,30,29.50
2014,07,28,16,31,29.70
2014,07,28,16,32,29.80
2014,07,28,16,33,29.80
2014,07,28,16,34,29.90
2014,07,28,16,35,30.00
2014,07,28,16,36,30.00
2014,07,28,16,37,30.10
2014,07,28,16,38,30.10
2014,07,28,16,39,30.20
2014,07,28,16,40,30.20
2014,07,28,16,41,30.20
2014,07,28,16,42,30.20
2014,07,28,16,43,30.30
2014,07,28,16,44,30.30
2014,07,28,16,45,30.30
2014,07,28,16,46,30.20
2014,07,28,16,47,30.20
2014,07,28,16,48,30.00
2014,07,28,16,49,30.00
2014,07,28,16,50,29.80
2014,07,28,16,51,29.80
2014,07,28,16,52,29.80
2014,07,28,16,53,29.80
2014,07,28,16,54,29.80
2014,07,28,16,55,29.80
2014,07,28,16,56,29.80
2014,07,28,16,57,29.70
2014,07,28,16,58,29.70
2014,07,28,16,59,29.70
2014,07,28,17,00,29.70
2014,07,28,17,01,29.70
2014,07,28,17,02,29.60
2014,07,28,17,03,29.60
2014,07,28,17,04,29.60
2014,07,28,17,05,29.60
2014,07,28,17,06,29.70
2014,07,28,17,07,29.70
2014,07,28,17,08,29.70
2014,07,28,17,09,29.70
2014,07,28,17,10,29.70
2014,07,28,17,11,29.70
2014,07,28,17,12,29.70
2014,07,28,17,13,29.60
2014,07,28,17,14,29.60
2014,07,28,17,15,29.60
2014,07,28,17,16,29.60
2014,07,28,17,17,29.70
2014,07,28,17,18,29.70
2014,07,28,17,19,29.70